Location: Wildcat Hills Observatory
(41.6350°N, 103.6812°W)
Time: 19:42:46
(UTC-06:00)

Daily predictions for brighter satellites

Satellite Brightness Start Highest point End
(mag) Time Altitude Azimuth Time Altitude Azimuth Time Altitude Azimuth
Cosmos 1727 Rocket 4.1 20:59:56 10° S 21:06:16 87° E 21:12:40 10° N
Cosmos 1939 Rocket 2.9 21:02:56 10° SSE 21:06:56 86° WSW 21:11:02 10° NNW
CZ-4B DEB 2.6 21:04:11 10° SSE 21:07:07 63° ENE 21:10:04 10° N
Cosmos 1340 Rocket 2.9 21:04:29 10° S 21:08:30 89° E 21:12:36 10° N
Cosmos 2237 Rocket 3.4 21:03:39 10° NW 21:08:52 40° WSW 21:14:03 10° S
Tiangong 1 1.0 21:06:09 10° W 21:08:57 74° N 21:11:45 10° E
Cosmos 2221 2.7 21:05:33 10° N 21:09:55 60° E 21:14:15 10° SSE
Meteor 1-29 2.9 21:09:01 10° NNE 21:12:27 66° ESE 21:15:52 10° S
SJ-11-01 4.5 21:08:09 10° S 21:12:53 79° WSW 21:17:40 10° NNW
Envisat 3.6 21:11:21 10° S 21:16:20 58° W 21:21:22 10° NNW
Cosmos 1674 2.9 21:15:07 10° S 21:18:46 50° E 21:22:25 10° NNE
SAR-Lupe-4 3.6 21:19:04 10° S 21:22:38 81° WSW 21:26:14 10° NNW
Cosmos 2227 Rocket 4.1 21:18:46 10° WSW 21:23:53 35° WNW 21:29:02 10° N
Cosmos 2208 Rocket 4.1 21:19:04 10° NNW 21:24:26 79° ENE 21:29:49 10° SSE
Okean 3 Rocket 3.6 21:20:40 10° S 21:25:10 86° E 21:29:40 10° N
MetOp-A 4.4 21:22:02 10° SSE 21:27:15 54° ENE 21:32:27 10° N
Cosmos 1908 3.2 21:23:34 10° N 21:27:27 69° E 21:31:17 10° SSE
ARGOS 3.7 21:24:15 10° SE 21:29:22 44° ENE 21:34:29 10° N
Lacrosse 5 2.5 21:24:51 10° NW 21:29:47 50° NE 21:34:30 11° ESE
SPOT 5 3.6 21:26:16 11° SE 21:30:35 39° ENE 21:35:20 10° N
Cosmos 2016 Rocket 4.3 21:25:48 10° N 21:31:52 50° ENE 21:37:34 11° SSE
SL-16 R/B 2.7 21:28:28 10° NNW 21:34:02 61° WSW 21:39:35 10° S
Abrixas rocket 3.6 21:32:12 10° NW 21:35:13 34° NNE 21:38:14 10° E
KORONAS-FOTON 3.9 21:32:28 10° S 21:36:11 55° E 21:39:54 10° NNE
Cosmos 1570 Rocket 4.2 21:30:55 10° NNW 21:36:13 75° WSW 21:41:27 10° S
Cosmos 1766 Rocket 3.7 21:32:50 10° S 21:37:02 54° E 21:41:18 10° NNE
Cosmos 1242 Rocket 2.6 21:34:04 10° N 21:37:48 88° ENE 21:41:26 11° S
SPOT 1/Viking Rocket 4.4 21:35:08 13° SE 21:39:15 36° ENE 21:43:55 10° N
Cosmos 1328 Rocket 4.5 21:38:13 10° NNE 21:42:08 32° ENE 21:44:57 16° SE
Helios 1B rocket 3.9 21:40:28 10° N 21:44:22 41° WNW 21:48:15 10° SW
USA 245 3.6 21:44:50 17° SE 21:47:15 50° ENE 21:51:23 10° N
Cosmos 2084 4.4 21:45:22 10° SW 21:49:12 45° NW 21:52:55 10° NNE
YAOGAN 11 4.4 21:45:54 15° SSE 21:49:31 59° ENE 21:54:01 10° N
Cosmos 1743 Rocket 4.2 21:50:21 17° SSE 21:53:11 36° E 21:57:08 10° NNE
H-2A R/B 4.0 21:51:01 11° E 21:53:22 16° ENE 21:55:55 10° NNE
Cosmos 1867 4.2 21:51:21 10° SW 21:56:44 61° NW 22:02:09 10° NNE
Cosmos 2228 Rocket 3.7 21:52:20 10° N 21:56:44 44° ENE 21:59:34 20° SE
Cosmos 468 Rocket 3.9 21:57:21 10° NNW 22:02:31 84° ENE 22:06:13 19° SSE
SL-08 RB Rocket 3.7 22:00:01 18° SSE 22:03:19 72° ENE 22:07:56 10° N
USA 234 3.2 21:57:19 10° NE 22:03:47 61° SE 22:10:14 10° SSW
NOAA 11 4.5 21:58:35 10° S 22:03:54 65° WSW 22:09:19 10° NNW
Terra 3.0 22:02:54 17° ESE 22:05:33 29° ENE 22:09:38 10° N
ERS-1 Rocket 3.7 22:01:57 10° S 22:06:50 51° W 22:11:46 10° NNW
Cosmos 2227 4.4 22:04:32 10° SSW 22:10:16 79° WNW 22:16:01 10° NNE
Cosmos 332 Rocket 3.8 22:07:42 10° NNW 22:12:38 86° ENE 22:15:45 23° SSE
Nimbus 7 Rocket 4.4 22:09:53 10° NNE 22:15:54 70° ESE 22:21:28 12° S
Cosmos 1626 3.2 22:19:15 26° ESE 22:19:54 28° E 22:23:07 10° NNE
Cosmos 220 Rocket 3.9 22:15:55 10° SSW 22:20:16 82° ESE 22:24:41 10° NNE
Cosmos 2058 3.5 22:21:05 29° SE 22:22:34 39° E 22:26:31 10° NNE
H-2A R/B 2.1 22:19:43 22° SSE 22:23:16 87° ENE 22:28:44 10° NNW
Meteor 2-10 4.2 22:18:07 10° N 22:23:47 86° E 22:27:34 22° S
Cosmos 1726 2.6 22:20:58 10° NNW 22:24:35 56° W 22:26:41 22° SSW
Cosmos 2123 Rocket 4.0 22:20:42 10° S 22:26:50 84° W 22:33:05 10° N
Cosmos 1300 2.9 22:24:53 10° NNW 22:28:42 69° W 22:30:38 27° S
RESURS DK-1 3.0 22:26:45 10° NW 22:30:48 50° WSW 22:32:49 26° S
SL-14 R/B 3.5 22:28:56 18° SSW 22:31:47 68° W 22:35:42 10° N
Cosmos 2263 Rocket 2.2 22:28:33 19° S 22:32:25 57° ESE 22:37:53 10° NNE
ATLAS 5 CENTAUR R/B 4.5 22:33:43 10° W 22:37:31 23° NW 22:41:35 10° NNE
ERBS 2.2 22:35:44 10° NW 22:39:08 79° SW 22:39:46 55° SSE
Cosmos 1328 4.5 22:38:21 17° SSW 22:41:17 53° W 22:45:15 10° N
Cosmos 2285 Rocket 4.4 22:37:07 10° N 22:43:18 51° ENE 22:46:33 27° SE
Tiangong 1 0.7 22:41:50 10° WNW 22:44:32 80° NNW 22:44:32 80° NNW
deb Chang Zheng 4 4.0 22:41:48 10° NNE 22:45:59 43° E 22:46:50 38° SE
Cosmos 1356 3.3 22:45:24 47° S 22:46:20 90° WNW 22:49:51 10° N
EO 1 Delta rocket 4.5 22:46:04 21° SSW 22:48:56 49° W 22:53:27 10° NNW
Cosmos 2151 2.9 22:47:34 32° S 22:49:32 85° W 22:53:52 10° N
Cosmos 1725 Rocket 4.4 22:43:32 10° NNW 22:49:39 58° W 22:54:01 19° SSW
Cosmos 1500 Rocket 4.1 22:55:08 23° SSW 22:57:47 57° W 23:02:12 10° N
Cosmos 1354 Rocket 3.9 22:56:26 32° S 22:58:50 71° ESE 23:04:04 10° NNE
Cosmos 1455 2.2 22:58:16 10° N 23:02:06 60° E 23:02:32 55° ESE
Cosmos 371 Rocket 4.3 22:57:54 10° NW 23:02:22 38° WSW 23:04:29 25° SSW
DMSP B5D2-2 4.4 22:58:24 10° N 23:03:36 65° WNW 23:07:11 20° SSW
Cosmos 1666 Rocket 4.4 23:05:36 33° E 23:05:53 34° E 23:09:55 10° NNE
Cosmos 1844 Rocket 4.0 23:06:20 22° E 23:06:20 22° E 23:10:33 10° NE
CARTOSAT-1 3.8 23:06:35 42° SSW 23:07:52 64° W 23:12:10 10° NNW
Cosmos 841 Rocket 3.9 23:06:56 10° NNW 23:12:03 54° WSW 23:13:59 34° SSW
Abrixas rocket 3.1 23:08:54 10° WNW 23:11:18 39° WSW 23:11:18 39° WSW
Lacrosse 5 3.0 23:08:11 10° WNW 23:12:33 30° SW 23:13:41 27° SSW
Cosmos 1869 4.0 23:09:36 10° N 23:13:20 39° ENE 23:13:30 39° E
CZ-4C R/B 2.7 23:13:21 35° ESE 23:13:25 35° ESE 23:18:34 10° NE
Cosmos 1763 Rocket 4.4 23:08:46 10° NW 23:13:30 39° WSW 23:15:31 27° SSW
Cosmos 1464 Rocket 4.1 23:09:03 10° N 23:15:10 62° E 23:17:27 38° SE
Cosmos 1943 3.7 23:10:57 10° NW 23:16:24 50° WSW 23:18:35 33° SSW
Cosmos 1805 Rocket 3.5 23:16:20 59° SE 23:16:56 68° E 23:21:15 10° NNE
SL-19 R/B 4.2 23:12:38 10° NNE 23:18:00 81° WNW 23:20:51 30° SSW
Cosmos 1633 Rocket 3.6 23:21:59 40° E 23:22:02 40° E 23:26:08 10° NNE
CZ-4C R/B 3.6 23:22:30 56° ESE 23:23:06 63° ENE 23:27:27 10° N
IGS 5A 4.3 23:24:55 35° SW 23:25:51 41° W 23:29:48 10° NNW
Cosmos 1151 Rocket 4.4 23:21:59 10° NNW 23:25:52 32° W 23:27:26 25° SW
H-2A R/B 2.6 23:28:08 42° SW 23:29:00 49° W 23:33:08 10° NNW
Cosmos 2084 Rocket 4.4 23:30:57 10° NNW 23:34:26 33° NE 23:35:02 31° ENE
Delta 2 Rocket 4.4 23:30:23 10° WSW 23:35:17 44° SSW 23:35:17 44° SSW
CZ-2C R/B 3.3 23:35:54 10° NNE 23:40:47 37° E 23:41:08 36° ESE
Terra 3.1 23:41:47 25° SW 23:43:12 30° W 23:47:23 10° NW
USA 234 4.3 23:40:29 10° NE 23:46:40 46° NNW 23:52:49 10° W
Tsikada Rocket 4.1 23:46:09 45° SSE 23:47:53 61° E 23:54:08 10° NNE
ARGOS Delta rocket 3.9 23:44:43 10° NNE 23:50:01 74° E 23:50:48 61° SSE
SME Rocket 3.1 23:51:07 63° WSW 23:51:15 63° WSW 23:55:46 10° NNW
Cosmos 1470 Rocket 4.1 23:53:20 44° E 23:53:20 44° E 23:57:21 10° NNE
Cosmos 2242 Rocket 3.7 23:49:25 10° N 23:53:59 62° E 23:54:14 61° E
Cosmos 1626 4.5 23:53:53 15° W 23:55:17 17° WNW 23:57:51 10° NNW
